CZ-6A DEB, 61807

Orbit data source: Space-Track

CZ-6A DEB, 61807 is space debris in LEO originally from a launch on Tue, 06 Aug 2024 UTC launched from the Taiyaun Space Center, China (TSC). Debris objects in space refer to the collection of defunct objects orbiting the Earth. Examples of debris include non-operational satellites, rocket bodies, and fragments generated from explosions, collisions, or faulty payload assembly.

Loading next visibility...
Identifier
61807, 2024-140ABX
Orbit
LEO
Country
Flag of CNCN / PRC
Related business
Manufacturer
SAST
Mission
Spacecraft
Bus & Motor
Unknown
Mass
Unknown
Launch date (UTC)
2024-08-06 (2 years ago)
Launch vehicle
Unknown
Launch site
Taiyaun Space Center, China (TSC)
Object type
Payload
Rocket body
Debris
Shape & HBR
Unknown shape, 0.1 m
Radar Cross Section
Medium (>0.1 m² and <1 m²)

Expand to show TLE details & history
Last TLE update: 13 hours ago

TLE from 13 hours ago
0 CZ-6A DEB
1 61807U 24140ABX 26171.30089003  .00000649  00000-0  27682-3 0  9990
2 61807  88.9822 272.4418 0036423 151.3450 208.9754 14.23548196 90845
Epoch: 2026-06-20T07:13Z
TLE epoch observation values (Epoch: 2026-06-20T07:13:16.898Z)
Latitude
-0.00004°
Longitude
-104.39609°
Altitude
839.378 km
Speed
7.421 km/s
True Right ascension
18h 09m 46s
True Declination
0° 00' 00"
Sunlit
Object was in full shadow at epoch
Visualization orbit readout
Latitude
Unknown
Longitude
Unknown
Altitude
Unknown
Speed
Unknown
Apparent Right ascension
Unknown
Apparent Declination
Unknown
Sunlit
N/A
Visualization observer readout
Local Sidereal Time
07:12:22
Azimuth
Unknown
Elevation
Unknown
Doppler factor
Unknown
Orbital elements
Apogee altitude
836.507 km
Perigee altitude
784.142 km
Semi-major axis
7,188.461 km
Eccentricity
0.00364
Inclination
88.9822°
RAAN
272.4418°
Arg. of periapsis
151.345°
True anomaly
208.77401°
Mean anomaly
208.9754°
Eccentric anomaly
208.87463°
Mean motion
3.56114 °/min
Orbital period
101.09 mins
BSTAR
0.00027682
Loading maneuver chart data...
Computing Atmospheric mass density...
Loading historical data...
Loading historical data...
Loading historical data...
Loading historical data...
Loading historical data...
Loading historical data...
Loading historical data...

Documentation

Showing up to 5 results
|